QPF
0.02 0.03 0.04 0.05 0.05 0.06 0.06 0.04 0.03 0.03 0.03 0.02 0.03 0.03 0.03 0.02 0.01 0.01 0.01 0.01 0.02 0.02 0.02 0.02 0.02 0.02 0.02 0.01 0.01 0.01 0.01 0.02 0.01 0.01 0.02 0.03 0.06 0.06 0.04 0.04 0.05 0.04 0.04
0.01 0.01 0.02 0.03 0.04 0.05 0.07 0.07 0.05 0.04 0.04 0.03 0.03 0.03 0.01 0.01 0.01 0.01 0.01 0.01 0.01 0.02 0.02 0.03 0.02 0.02 0.02 0.02 0.01 0.01 0.01 0.01 0.02 0.02 0.01 0.02 0.02 0.04 0.05 0.07 0.06 0.05 0.04
0.01 0.01 0.01 0.02 0.03 0.03 0.04 0.04 0.03 0.03 0.03 0.02 0.02 0.01 0.00 0.00 0.01 0.01 0.01 0.01 0.01 0.01 0.02 0.02 0.01 0.01 0.02 0.01 0.01 0.01 0.01 0.01 0.02 0.02 0.02 0.02 0.02 0.02 0.04 0.05 0.04 0.04 0.03
0.01 0.01 0.01 0.01 0.02 0.03 0.04 0.03 0.02 0.02 0.02 0.02 0.01 0.00 0.00 0.00 0.00 0.01 0.00 0.00 0.00 0.01 0.01 0.01 0.01 0.02 0.01 0.01 0.01 0.01 0.01 0.02 0.03 0.04 0.03 0.03 0.03 0.04 0.05 0.05 0.05 0.04 0.03
0.01 0.02 0.02 0.02 0.02 0.02 0.02 0.02 0.01 0.01 0.01 0.01 0.01 0.01 0.01 0.00 0.00 0.00 0.00 0.00 0.01 0.01 0.01 0.01 0.02 0.02 0.02 0.02 0.02 0.02 0.02 0.04 0.05 0.06 0.05 0.04 0.04 0.05 0.06 0.06 0.05 0.06 0.05
0.01 0.02 0.02 0.01 0.01 0.01 0.01 0.01 0.01 0.01 0.01 0.01 0.01 0.00 0.01 0.01 0.00 0.00 0.00 0.00 0.00 0.01 0.01 0.01 0.01 0.01 0.01 0.02 0.02 0.02 0.02 0.03 0.05 0.05 0.06 0.05 0.05 0.05 0.06 0.06 0.06 0.06 0.06
0.02 0.01 0.01 0.01 0.01 0.01 0.01 0.01 0.01 0.01 0.01 0.01 0.01 0.01 0.01 0.01 0.00 0.00 0.01 0.01 0.01 0.01 0.01 0.01 0.01 0.01 0.01 0.02 0.02 0.02 0.02 0.02 0.02 0.03 0.04 0.06 0.06 0.06 0.05 0.05 0.07 0.08 0.07
0.02 0.02 0.02 0.02 0.01 0.01 0.01 0.01 0.01 0.01 0.00 0.00 0.01 0.01 0.01 0.01 0.00 0.00 0.01 0.01 0.00 0.01 0.01 0.01 0.01 0.01 0.01 0.02 0.03 0.02 0.02 0.02 0.02 0.02 0.02 0.02 0.03 0.04 0.04 0.04 0.06 0.08 0.10
0.03 0.03 0.02 0.02 0.02 0.02 0.01 0.01 0.01 0.01 0.01 0.01 0.01 0.01 0.01 0.01 0.01 0.01 0.01 0.00 0.00 0.01 0.01 0.02 0.02 0.02 0.02 0.02 0.03 0.02 0.01 0.01 0.02 0.02 0.02 0.02 0.03 0.04 0.04 0.03 0.04 0.07 0.08
0.03 0.03 0.02 0.01 0.01 0.01 0.01 0.01 0.02 0.01 0.01 0.01 0.01 0.01 0.01 0.01 0.01 0.01 0.01 0.00 0.00 0.01 0.01 0.01 0.01 0.01 0.02 0.02 0.03 0.03 0.02 0.01 0.01 0.01 0.02 0.02 0.02 0.03 0.04 0.04 0.04 0.05 0.06
0.01 0.02 0.01 0.01 0.01 0.01 0.01 0.01 0.02 0.02 0.03 0.02 0.01 0.01 0.02 0.01 0.01 0.01 0.01 0.01 0.00 0.01 0.01 0.02 0.01 0.00 0.00 0.01 0.01 0.02 0.01 0.01 0.01 0.01 0.01 0.01 0.01 0.01 0.02 0.03 0.03 0.05 0.05
0.01 0.01 0.01 0.01 0.01 0.01 0.02 0.02 0.02 0.02 0.02 0.02 0.01 0.01 0.01 0.01 0.01 0.00 0.00 0.00 0.00 0.00 0.01 0.01 0.01 0.00 0.00 0.00 0.00 0.01 0.01 0.01 0.01 0.01 0.01 0.01 0.01 0.01 0.01 0.02 0.02 0.02 0.04
0.01 0.01 0.01 0.01 0.01 0.01 0.01 0.01 0.01 0.02 0.01 0.01 0.01 0.01 0.01 0.01 0.00 0.00 0.00 0.00 0.00 0.00 0.01 0.01 0.00 0.00 0.00 0.00 0.00 0.00 0.01 0.01 0.01 0.01 0.01 0.01 0.01 0.00 0.01 0.01 0.01 0.01 0.02
0.01 0.01 0.01 0.01 0.01 0.01 0.01 0.01 0.01 0.01 0.01 0.01 0.01 0.01 0.01 0.01 0.00 0.00 0.00 0.00 0.00 0.00 0.00 0.01 0.01 0.00 0.00 0.00 0.00 0.01 0.01 0.01 0.01 0.01 0.01 0.01 0.01 0.01 0.01 0.01 0.01 0.01 0.02
0.02 0.02 0.01 0.01 0.01 0.01 0.01 0.01 0.01 0.01 0.01 0.01 0.01 0.01 0.01 0.01 0.01 0.01 0.01 0.01 0.01 0.01 0.01 0.01 0.01 0.00 0.00 0.00 0.00 0.00 0.01 0.01 0.01 0.02 0.02 0.02 0.01 0.01 0.01 0.01 0.01 0.02 0.02
0.01 0.01 0.01 0.01 0.01 0.01 0.01 0.00 0.00 0.01 0.01 0.00 0.00 0.01 0.00 0.00 0.00 0.01 0.01 0.01 0.01 0.01 0.00 0.00 0.00 0.00 0.00 0.00 0.00 0.01 0.01 0.01 0.01 0.01 0.02 0.02 0.01 0.01 0.01 0.01 0.01 0.02 0.03
0.01 0.01 0.01 0.01 0.01 0.01 0.01 0.00 0.00 0.00 0.00 0.00 0.01 0.01 0.01 0.01 0.01 0.01 0.01 0.01 0.01 0.00 0.00 0.00 0.00 0.00 0.00 0.01 0.01 0.02 0.02 0.01 0.01 0.01 0.02 0.02 0.01 0.01 0.01 0.01 0.01 0.02 0.04
0.01 0.01 0.01 0.00 0.00 0.00 0.01 0.01 0.01 0.01 0.01 0.01 0.01 0.01 0.01 0.01 0.01 0.01 0.01 0.01 0.00 0.00 0.01 0.01 0.01 0.01 0.01 0.01 0.02 0.02 0.02 0.01 0.01 0.01 0.02 0.03 0.01 0.01 0.01 0.02 0.02 0.02 0.03
0.01 0.01 0.01 0.01 0.01 0.01 0.01 0.00 0.00 0.01 0.01 0.02 0.02 0.03 0.03 0.02 0.02 0.02 0.02 0.01 0.01 0.01 0.01 0.01 0.01 0.01 0.01 0.02 0.02 0.02 0.02 0.01 0.01 0.02 0.02 0.03 0.03 0.02 0.02 0.02 0.02 0.02 0.02
0.02 0.01 0.01 0.01 0.01 0.01 0.01 0.00 0.00 0.00 0.01 0.01 0.02 0.03 0.04 0.05 0.04 0.04 0.03 0.02 0.01 0.01 0.01 0.00 0.01 0.02 0.02 0.02 0.02 0.01 0.01 0.01 0.01 0.02 0.03 0.04 0.04 0.03 0.03 0.03 0.03 0.02 0.02
0.02 0.02 0.02 0.02 0.01 0.02 0.02 0.01 0.01 0.00 0.01 0.01 0.01 0.02 0.02 0.02 0.03 0.04 0.04 0.03 0.02 0.02 0.01 0.01 0.02 0.02 0.01 0.01 0.01 0.01 0.01 0.01 0.01 0.01 0.02 0.03 0.02 0.03 0.03 0.03 0.03 0.03 0.02
0.02 0.01 0.01 0.01 0.01 0.02 0.02 0.02 0.01 0.01 0.01 0.01 0.01 0.01 0.01 0.01 0.01 0.02 0.03 0.05 0.04 0.03 0.03 0.03 0.02 0.01 0.01 0.00 0.00 0.00 0.00 0.00 0.01 0.01 0.01 0.02 0.02 0.02 0.03 0.03 0.03 0.03 0.02
0.02 0.02 0.02 0.02 0.03 0.03 0.02 0.02 0.02 0.02 0.01 0.01 0.01 0.01 0.01 0.01 0.01 0.02 0.02 0.03 0.03 0.03 0.03 0.02 0.02 0.01 0.01 0.01 0.01 0.01 0.01 0.01 0.01 0.01 0.01 0.02 0.02 0.02 0.02 0.02 0.02 0.02 0.02
0.03 0.02 0.02 0.01 0.02 0.03 0.03 0.03 0.03 0.02 0.02 0.02 0.01 0.01 0.01 0.01 0.01 0.02 0.02 0.02 0.01 0.01 0.01 0.02 0.02 0.01 0.01 0.01 0.01 0.01 0.01 0.01 0.01 0.01 0.02 0.02 0.02 0.02 0.02 0.02 0.02 0.02 0.02
0.02 0.02 0.01 0.01 0.02 0.02 0.03 0.03 0.03 0.02 0.02 0.01 0.02 0.01 0.01 0.01 0.01 0.02 0.03 0.02 0.02 0.02 0.02 0.01 0.02 0.01 0.01 0.01 0.01 0.01 0.01 0.01 0.01 0.01 0.01 0.01 0.01 0.01 0.01 0.01 0.01 0.01 0.01
0.01 0.01 0.01 0.01 0.01 0.02 0.02 0.02 0.03 0.03 0.02 0.02 0.02 0.02 0.02 0.02 0.01 0.01 0.02 0.02 0.02 0.02 0.01 0.01 0.02 0.02 0.02 0.02 0.01 0.01 0.01 0.01 0.01 0.01 0.01 0.01 0.01 0.01 0.01 0.01 0.01 0.01 0.01
MSLP
1012.87 1012.32 1011.74 1011.11 1010.40 1009.64 1008.86 1008.11 1007.45 1006.94 1006.63 1006.52 1006.63 1006.89 1007.27 1007.71 1008.14 1008.52 1008.82 1009.03 1009.15 1009.21 1009.22 1009.20 1009.19 1009.19 1009.19 1009.22 1009.25 1009.28 1009.29 1009.28 1009.22 1009.11 1008.94 1008.70 1008.38 1008.01 1007.59 1007.14 1006.70 1006.29 1005.95
1012.85 1012.25 1011.63 1010.96 1010.23 1009.44 1008.65 1007.89 1007.23 1006.72 1006.40 1006.30 1006.40 1006.68 1007.07 1007.53 1007.99 1008.39 1008.71 1008.93 1009.04 1009.07 1009.03 1008.95 1008.86 1008.78 1008.73 1008.71 1008.73 1008.76 1008.80 1008.83 1008.82 1008.75 1008.60 1008.37 1008.05 1007.65 1007.18 1006.68 1006.19 1005.72 1005.32
1012.79 1012.17 1011.52 1010.82 1010.07 1009.29 1008.49 1007.75 1007.09 1006.59 1006.28 1006.17 1006.27 1006.54 1006.92 1007.38 1007.84 1008.25 1008.58 1008.79 1008.90 1008.90 1008.82 1008.70 1008.56 1008.43 1008.33 1008.27 1008.26 1008.29 1008.34 1008.38 1008.39 1008.34 1008.21 1007.98 1007.65 1007.23 1006.74 1006.21 1005.67 1005.16 1004.72
1012.70 1012.07 1011.41 1010.71 1009.96 1009.19 1008.42 1007.69 1007.07 1006.58 1006.28 1006.16 1006.25 1006.49 1006.85 1007.28 1007.71 1008.11 1008.42 1008.62 1008.72 1008.71 1008.61 1008.46 1008.29 1008.12 1007.99 1007.90 1007.86 1007.86 1007.89 1007.91 1007.91 1007.85 1007.71 1007.47 1007.14 1006.71 1006.21 1005.67 1005.12 1004.59 1004.11
1012.61 1011.98 1011.33 1010.63 1009.90 1009.16 1008.42 1007.74 1007.15 1006.69 1006.40 1006.28 1006.34 1006.54 1006.86 1007.23 1007.62 1007.97 1008.25 1008.44 1008.52 1008.50 1008.40 1008.24 1008.05 1007.86 1007.69 1007.56 1007.48 1007.43 1007.41 1007.39 1007.35 1007.26 1007.09 1006.84 1006.50 1006.07 1005.57 1005.04 1004.49 1003.96 1003.46
1012.54 1011.92 1011.27 1010.59 1009.89 1009.18 1008.50 1007.86 1007.32 1006.90 1006.62 1006.50 1006.53 1006.68 1006.94 1007.24 1007.56 1007.86 1008.09 1008.25 1008.31 1008.28 1008.17 1008.01 1007.81 1007.60 1007.41 1007.23 1007.09 1006.98 1006.89 1006.80 1006.70 1006.55 1006.35 1006.07 1005.72 1005.30 1004.83 1004.31 1003.78 1003.26 1002.75
1012.50 1011.89 1011.25 1010.60 1009.93 1009.26 1008.63 1008.05 1007.56 1007.18 1006.92 1006.79 1006.79 1006.90 1007.08 1007.31 1007.55 1007.77 1007.95 1008.06 1008.09 1008.05 1007.94 1007.77 1007.56 1007.34 1007.10 1006.88 1006.67 1006.48 1006.31 1006.14 1005.96 1005.75 1005.50 1005.20 1004.85 1004.44 1003.99 1003.51 1003.01 1002.50 1002.00
1012.52 1011.91 1011.28 1010.64 1010.00 1009.38 1008.80 1008.28 1007.84 1007.50 1007.26 1007.13 1007.10 1007.15 1007.26 1007.41 1007.56 1007.71 1007.82 1007.88 1007.88 1007.82 1007.70 1007.52 1007.30 1007.05 1006.78 1006.50 1006.22 1005.95 1005.69 1005.43 1005.17 1004.90 1004.61 1004.29 1003.93 1003.54 1003.12 1002.67 1002.20 1001.72 1001.23
1012.59 1011.97 1011.34 1010.72 1010.10 1009.52 1008.99 1008.52 1008.14 1007.83 1007.62 1007.49 1007.43 1007.43 1007.47 1007.54 1007.61 1007.68 1007.72 1007.73 1007.69 1007.61 1007.47 1007.27 1007.03 1006.75 1006.44 1006.10 1005.76 1005.41 1005.07 1004.73 1004.40 1004.08 1003.75 1003.41 1003.05 1002.68 1002.28 1001.86 1001.41 1000.94 1000.45
1012.70 1012.07 1011.44 1010.82 1010.22 1009.67 1009.18 1008.76 1008.42 1008.15 1007.95 1007.82 1007.74 1007.70 1007.68 1007.68 1007.68 1007.67 1007.66 1007.61 1007.54 1007.42 1007.26 1007.04 1006.78 1006.47 1006.11 1005.73 1005.33 1004.92 1004.51 1004.11 1003.72 1003.35 1002.99 1002.63 1002.27 1001.90 1001.51 1001.10 1000.66 1000.19 999.70
1012.85 1012.20 1011.55 1010.93 1010.34 1009.82 1009.36 1008.98 1008.67 1008.43 1008.25 1008.11 1008.01 1007.94 1007.87 1007.81 1007.76 1007.69 1007.62 1007.53 1007.42 1007.27 1007.08 1006.85 1006.56 1006.22 1005.84 1005.41 1004.97 1004.51 1004.05 1003.60 1003.17 1002.76 1002.37 1001.99 1001.62 1001.23 1000.84 1000.42 999.97 999.48 998.97
1013.00 1012.33 1011.67 1011.03 1010.46 1009.95 1009.51 1009.16 1008.87 1008.65 1008.48 1008.35 1008.23 1008.13 1008.03 1007.93 1007.83 1007.72 1007.61 1007.48 1007.34 1007.17 1006.96 1006.70 1006.39 1006.03 1005.63 1005.17 1004.69 1004.20 1003.71 1003.23 1002.76 1002.32 1001.91 1001.50 1001.10 1000.69 1000.27 999.82 999.33 998.82 998.27
1013.13 1012.44 1011.76 1011.12 1010.55 1010.04 1009.63 1009.29 1009.02 1008.81 1008.64 1008.50 1008.38 1008.26 1008.14 1008.01 1007.88 1007.75 1007.61 1007.46 1007.29 1007.10 1006.88 1006.60 1006.28 1005.91 1005.48 1005.01 1004.51 1004.00 1003.49 1002.98 1002.50 1002.03 1001.59 1001.15 1000.71 1000.26 999.79 999.29 998.76 998.20 997.62
1013.23 1012.52 1011.83 1011.19 1010.61 1010.12 1009.70 1009.37 1009.11 1008.90 1008.73 1008.59 1008.45 1008.32 1008.18 1008.04 1007.90 1007.75 1007.60 1007.44 1007.27 1007.06 1006.83 1006.55 1006.21 1005.83 1005.39 1004.91 1004.41 1003.89 1003.36 1002.85 1002.34 1001.85 1001.38 1000.90 1000.42 999.92 999.40 998.85 998.26 997.65 997.03
1013.28 1012.57 1011.88 1011.24 1010.66 1010.17 1009.76 1009.42 1009.15 1008.94 1008.76 1008.60 1008.45 1008.31 1008.17 1008.03 1007.88 1007.74 1007.58 1007.42 1007.24 1007.04 1006.80 1006.51 1006.18 1005.79 1005.35 1004.87 1004.36 1003.84 1003.31 1002.78 1002.26 1001.75 1001.24 1000.73 1000.21 999.66 999.09 998.49 997.86 997.22 996.56
1013.32 1012.61 1011.93 1011.30 1010.73 1010.24 1009.82 1009.47 1009.19 1008.95 1008.75 1008.58 1008.42 1008.27 1008.12 1007.97 1007.83 1007.69 1007.55 1007.39 1007.22 1007.02 1006.79 1006.50 1006.17 1005.78 1005.34 1004.86 1004.35 1003.83 1003.29 1002.75 1002.22 1001.69 1001.16 1000.61 1000.06 999.48 998.87 998.24 997.59 996.93 996.28
1013.37 1012.69 1012.03 1011.41 1010.85 1010.36 1009.94 1009.57 1009.27 1009.00 1008.77 1008.57 1008.39 1008.22 1008.06 1007.91 1007.78 1007.64 1007.51 1007.37 1007.21 1007.02 1006.79 1006.51 1006.18 1005.79 1005.36 1004.88 1004.37 1003.84 1003.30 1002.76 1002.21 1001.66 1001.11 1000.55 999.97 999.37 998.76 998.13 997.48 996.84 996.21
1013.47 1012.83 1012.20 1011.62 1011.07 1010.59 1010.15 1009.77 1009.43 1009.13 1008.86 1008.62 1008.40 1008.21 1008.03 1007.88 1007.75 1007.62 1007.50 1007.37 1007.23 1007.05 1006.83 1006.56 1006.23 1005.85 1005.41 1004.94 1004.42 1003.89 1003.34 1002.78 1002.22 1001.65 1001.09 1000.52 999.94 999.35 998.75 998.14 997.54 996.94 996.36
1013.64 1013.06 1012.49 1011.94 1011.43 1010.94 1010.50 1010.09 1009.71 1009.37 1009.05 1008.76 1008.50 1008.27 1008.08 1007.91 1007.77 1007.65 1007.54 1007.42 1007.29 1007.12 1006.91 1006.65 1006.33 1005.95 1005.51 1005.03 1004.51 1003.96 1003.39 1002.82 1002.25 1001.67 1001.10 1000.53 999.96 999.39 998.83 998.28 997.73 997.21 996.71
1013.92 1013.41 1012.90 1012.40 1011.91 1011.44 1010.99 1010.55 1010.14 1009.74 1009.37 1009.03 1008.72 1008.45 1008.23 1008.04 1007.88 1007.76 1007.65 1007.54 1007.41 1007.26 1007.06 1006.80 1006.48 1006.10 1005.66 1005.16 1004.63 1004.07 1003.48 1002.89 1002.30 1001.71 1001.14 1000.57 1000.02 999.49 998.98 998.50 998.04 997.61 997.21
1014.27 1013.84 1013.41 1012.96 1012.51 1012.06 1011.60 1011.15 1010.69 1010.25 1009.82 1009.43 1009.07 1008.75 1008.48 1008.27 1008.10 1007.96 1007.85 1007.74 1007.62 1007.47 1007.27 1007.01 1006.69 1006.30 1005.85 1005.34 1004.79 1004.20 1003.60 1002.98 1002.37 1001.77 1001.19 1000.64 1000.12 999.63 999.18 998.77 998.40 998.07 997.77
1014.67 1014.33 1013.97 1013.59 1013.18 1012.75 1012.30 1011.82 1011.34 1010.85 1010.38 1009.93 1009.52 1009.15 1008.85 1008.60 1008.41 1008.26 1008.13 1008.02 1007.90 1007.74 1007.54 1007.28 1006.95 1006.55 1006.09 1005.56 1004.98 1004.37 1003.74 1003.10 1002.47 1001.86 1001.28 1000.74 1000.24 999.79 999.40 999.07 998.79 998.55 998.36
1015.05 1014.80 1014.52 1014.21 1013.85 1013.45 1013.00 1012.52 1012.02 1011.50 1010.99 1010.50 1010.05 1009.65 1009.31 1009.03 1008.81 1008.64 1008.50 1008.38 1008.25 1008.08 1007.87 1007.60 1007.26 1006.84 1006.35 1005.80 1005.20 1004.56 1003.91 1003.24 1002.59 1001.97 1001.39 1000.87 1000.40 999.99 999.66 999.39 999.19 999.05 998.96
1015.37 1015.21 1015.00 1014.75 1014.44 1014.07 1013.65 1013.18 1012.67 1012.14 1011.61 1011.09 1010.61 1010.19 1009.83 1009.53 1009.29 1009.10 1008.95 1008.81 1008.66 1008.48 1008.25 1007.96 1007.59 1007.15 1006.64 1006.07 1005.44 1004.78 1004.10 1003.42 1002.76 1002.14 1001.57 1001.06 1000.62 1000.26 999.98 999.78 999.65 999.59 999.58
1015.58 1015.49 1015.35 1015.16 1014.91 1014.58 1014.19 1013.74 1013.25 1012.72 1012.19 1011.68 1011.19 1010.76 1010.39 1010.08 1009.83 1009.63 1009.46 1009.30 1009.12 1008.92 1008.67 1008.35 1007.95 1007.49 1006.95 1006.35 1005.70 1005.02 1004.33 1003.65 1003.00 1002.38 1001.83 1001.35 1000.95 1000.64 1000.41 1000.27 1000.20 1000.21 1000.28
1015.67 1015.64 1015.57 1015.43 1015.23 1014.95 1014.60 1014.19 1013.73 1013.24 1012.73 1012.24 1011.77 1011.35 1010.99 1010.68 1010.43 1010.21 1010.03 1009.84 1009.65 1009.41 1009.12 1008.77 1008.35 1007.85 1007.28 1006.66 1006.00 1005.32 1004.63 1003.96 1003.32 1002.73 1002.22 1001.78 1001.42 1001.16 1000.99 1000.91 1000.90 1000.97 1001.11
Thickness
5691 5688 5685 5682 5679 5676 5672 5670 5668 5666 5664 5661 5659 5656 5653 5651 5649 5646 5643 5641 5639 5636 5634 5632 5630 5628 5626 5624 5623 5621 5619 5617 5616 5618 5619 5621 5622 5622 5623 5624 5624 5625 5625
5690 5686 5682 5679 5676 5672 5669 5667 5665 5663 5660 5657 5655 5652 5649 5646 5644 5641 5639 5637 5634 5631 5629 5627 5625 5624 5621 5619 5617 5616 5615 5613 5611 5610 5612 5613 5614 5615 5616 5616 5617 5618 5618
5688 5684 5680 5676 5672 5668 5666 5663 5661 5659 5656 5653 5651 5647 5645 5642 5640 5638 5635 5633 5630 5627 5625 5622 5620 5618 5616 5614 5612 5611 5610 5610 5606 5604 5604 5606 5606 5607 5607 5608 5609 5609 5611
5685 5681 5676 5673 5669 5665 5663 5660 5657 5654 5652 5649 5646 5644 5641 5638 5636 5634 5631 5628 5626 5623 5621 5618 5616 5614 5612 5610 5608 5606 5604 5602 5600 5598 5598 5598 5598 5599 5598 5598 5599 5600 5602
5682 5677 5673 5670 5666 5662 5659 5656 5653 5651 5648 5645 5642 5639 5637 5635 5632 5630 5627 5624 5621 5618 5616 5614 5612 5610 5609 5606 5605 5602 5599 5596 5594 5592 5591 5591 5591 5590 5590 5591 5591 5592 5594
5678 5674 5671 5667 5663 5659 5655 5652 5649 5646 5643 5640 5638 5635 5632 5631 5629 5626 5623 5619 5616 5612 5610 5609 5608 5606 5605 5603 5602 5599 5597 5592 5589 5587 5586 5585 5586 5586 5586 5587 5585 5585 5585
5676 5672 5668 5664 5659 5656 5653 5648 5645 5642 5639 5636 5633 5631 5628 5626 5625 5622 5620 5615 5611 5608 5605 5603 5603 5602 5599 5597 5596 5595 5593 5590 5588 5585 5583 5582 5582 5583 5583 5582 5581 5580 5581
5673 5669 5666 5662 5657 5653 5649 5645 5642 5639 5636 5633 5630 5627 5625 5623 5621 5618 5615 5611 5607 5604 5602 5599 5596 5595 5594 5592 5590 5588 5586 5586 5585 5583 5582 5582 5581 5581 5580 5580 5578 5577 5577
5670 5666 5664 5660 5655 5651 5646 5643 5640 5636 5633 5630 5627 5624 5621 5619 5618 5615 5612 5607 5603 5601 5599 5596 5594 5592 5591 5589 5586 5583 5582 5582 5582 5581 5580 5579 5579 5579 5577 5574 5572 5570 5570
5667 5665 5662 5658 5653 5649 5645 5641 5638 5634 5631 5628 5625 5622 5619 5616 5614 5611 5608 5603 5600 5597 5595 5594 5592 5590 5589 5586 5582 5579 5577 5577 5577 5576 5575 5575 5575 5574 5573 5570 5569 5566 5564
5665 5662 5658 5655 5651 5647 5643 5639 5636 5632 5628 5625 5622 5619 5617 5614 5612 5608 5605 5600 5597 5594 5592 5590 5589 5588 5586 5584 5581 5578 5577 5576 5573 5571 5570 5569 5569 5569 5569 5568 5566 5564 5562
5661 5658 5654 5652 5649 5646 5640 5636 5633 5629 5624 5621 5617 5615 5613 5611 5608 5605 5602 5599 5596 5591 5589 5588 5587 5586 5584 5582 5580 5578 5577 5574 5570 5567 5566 5565 5565 5565 5566 5566 5565 5563 5562
5656 5653 5651 5648 5645 5643 5638 5633 5629 5625 5621 5617 5613 5610 5609 5607 5605 5603 5600 5597 5594 5590 5587 5586 5585 5583 5582 5580 5578 5577 5574 5570 5566 5564 5563 5563 5563 5563 5563 5563 5563 5561 5560
5651 5649 5647 5644 5641 5638 5635 5631 5627 5622 5618 5615 5612 5609 5606 5604 5602 5600 5597 5594 5591 5587 5584 5583 5582 5580 5578 5577 5575 5573 5571 5568 5565 5562 5561 5561 5561 5560 5560 5559 5557 5557 5555
5647 5645 5643 5640 5637 5634 5631 5628 5625 5621 5618 5614 5612 5609 5605 5602 5602 5599 5595 5592 5588 5585 5581 5578 5576 5574 5573 5571 5569 5568 5567 5566 5563 5562 5560 5559 5557 5556 5556 5556 5554 5553 5550
5643 5641 5639 5636 5634 5631 5627 5624 5623 5620 5618 5616 5613 5609 5606 5604 5601 5597 5594 5591 5587 5584 5578 5574 5572 5570 5568 5567 5566 5565 5564 5563 5562 5560 5559 5556 5555 5553 5553 5552 5551 5549 5547
5640 5638 5636 5633 5631 5628 5625 5621 5618 5617 5615 5613 5610 5608 5605 5603 5599 5596 5592 5588 5584 5580 5575 5573 5570 5568 5567 5566 5564 5563 5562 5561 5560 5558 5557 5555 5553 5551 5550 5549 5548 5546 5545
5637 5635 5632 5629 5627 5625 5622 5619 5616 5612 5609 5608 5608 5606 5603 5600 5597 5594 5589 5585 5580 5577 5574 5572 5570 5568 5567 5565 5563 5562 5560 5559 5556 5555 5553 5552 5550 5548 5546 5545 5544 5543 5542
5632 5631 5629 5626 5624 5622 5620 5617 5613 5611 5607 5605 5604 5603 5601 5598 5594 5590 5586 5582 5579 5577 5574 5572 5571 5569 5567 5565 5562 5560 5558 5556 5554 5551 5550 5549 5547 5545 5543 5542 5541 5540 5539
5628 5628 5626 5623 5620 5618 5616 5613 5611 5608 5605 5602 5600 5599 5597 5593 5589 5586 5583 5581 5578 5576 5575 5572 5571 5569 5566 5564 5561 5558 5556 5553 5552 5549 5548 5546 5544 5542 5540 5539 5538 5537 5535
5624 5623 5622 5619 5617 5615 5613 5612 5609 5606 5603 5601 5599 5599 5596 5592 5589 5586 5583 5581 5579 5576 5574 5572 5569 5567 5565 5562 5559 5557 5554 5551 5549 5547 5545 5543 5541 5539 5538 5536 5535 5534 5533
5619 5618 5617 5615 5614 5613 5611 5610 5608 5605 5602 5600 5598 5597 5594 5590 5588 5585 5583 5581 5578 5576 5573 5570 5567 5565 5562 5559 5556 5553 5551 5548 5546 5544 5542 5540 5538 5536 5535 5533 5532 5531 5530
5615 5614 5613 5612 5611 5610 5609 5607 5605 5603 5600 5598 5596 5593 5590 5588 5586 5584 5582 5580 5576 5573 5571 5568 5564 5562 5560 5557 5554 5551 5548 5545 5543 5541 5538 5537 5535 5533 5531 5530 5529 5527 5527
5610 5610 5609 5608 5607 5606 5605 5604 5602 5601 5598 5596 5594 5591 5589 5586 5585 5583 5580 5578 5574 5571 5568 5565 5562 5559 5556 5553 5550 5547 5544 5542 5540 5538 5536 5533 5532 5530 5529 5527 5526 5525 5524
5606 5605 5604 5603 5603 5602 5601 5600 5599 5598 5596 5594 5591 5589 5587 5584 5582 5580 5577 5574 5571 5568 5565 5562 5559 5555 5552 5549 5546 5543 5541 5538 5536 5534 5533 5531 5529 5528 5526 5525 5523 5522 5520
5601 5601 5600 5599 5598 5598 5597 5596 5595 5594 5593 5591 5589 5587 5584 5581 5579 5576 5574 5570 5567 5564 5561 5558 5555 5551 5548 5544 5541 5539 5536 5533 5531 5530 5529 5528 5526 5524 5522 5521 5520 5518 5517